Weather History for Superior, WI

Change the Weather History Date:

Monday, January 21, 2013

  Actual Average Record
Temperature  
Mean Temperature -10 °F -  
Max Temperature -6 °F 24 °F 45 °F (1968)
Min Temperature -15 °F 6 °F -31 °F (1954)
Degree Days  
Heating Degree Days 76    
Moisture  
Dew Point -22 °F    
Average Humidity 59    
Maximum Humidity 68    
Minimum Humidity 48    
Precipitation  
Precipitation 0.00 in - - ()
Sea Level Pressure  
Sea Level Pressure 30.24 in    
Wind  
Wind Speed 10 mph (WNW)    
Max Wind Speed 18 mph    
Max Gust Speed 25 mph    
Visibility 10 miles    
Events      
Averages and records for this station are not official NWS values.
T = Trace of Precipitation, MM = Missing Value Source: NWS Daily Summary

Daily Weather History Graph

Daily Weather History Graph

Search for Another Location

Airport:

Trip Planner

Search our weather history database for the weather conditions in past years. The results will help you decide how hot, cold, wet, or windy it might be!

Date:

Astronomy

Jan. 21, 2013 Rise Set
Actual Time 7:43 AM CST 4:56 PM CST
Civil Twilight 7:10 AM CST 5:29 PM CST
Nautical Twilight 6:33 AM CST 6:06 PM CST
Astronomical Twilight 5:57 AM CST 6:42 PM CST
Moon 12:34 PM CST (1/21) 3:13 AM CST (1/21)
Length of Visible Light 10h 19m
Length of Day
9h 12m
Waxing Gibbous, 75% of the Moon is Illuminated
Jan 21
Waxing Gibbous
Jan 26
Full
Feb 3
Last Quarter
Feb 10
New
Feb 17
First Quarter

Hourly Weather History & Observations

Time (CST) Temp. Windchill Dew Point Humidity Pressure Visibility Wind Dir Wind Speed Gust Speed Precip Events Conditions
12:15 AM -7.6 °F -24.6 °F -17.1 °F 63% 30.22 in 10.0 mi West 9.2 mph - N/A   Clear
12:35 AM -7.8 °F -23.6 °F -18.4 °F 60% 30.22 in 10.0 mi WNW 8.1 mph - N/A   Clear
12:55 AM -8.9 °F -25.0 °F -19.3 °F 60% 30.23 in 10.0 mi West 8.1 mph - N/A   Clear
1:15 AM -9.2 °F -26.6 °F -19.5 °F 61% 30.23 in 10.0 mi WNW 9.2 mph - N/A   Scattered Clouds
1:35 AM -9.4 °F -28.9 °F -19.3 °F 62% 30.23 in 10.0 mi WNW 11.5 mph - N/A   Scattered Clouds
1:55 AM -9.6 °F -28.1 °F -19.3 °F 62% 30.23 in 10.0 mi WNW 10.4 mph - N/A   Scattered Clouds
2:15 AM -10.3 °F -27.9 °F -20.2 °F 62% 30.24 in 10.0 mi WNW 9.2 mph - N/A   Clear
2:35 AM -11.0 °F -26.2 °F -20.6 °F 63% 30.24 in 10.0 mi West 6.9 mph 17.3 mph N/A   Scattered Clouds
2:55 AM -11.2 °F -30.1 °F -21.1 °F 62% 30.24 in 10.0 mi WNW 10.4 mph 19.6 mph N/A   Clear
3:15 AM -11.7 °F -31.8 °F -21.5 °F 62% 30.24 in 10.0 mi WNW 11.5 mph 20.7 mph N/A   Clear
3:35 AM -12.1 °F -32.3 °F -21.6 °F 63% 30.23 in 10.0 mi WNW 11.5 mph 16.1 mph N/A   Clear
3:55 AM -12.3 °F -31.5 °F -21.6 °F 63% 30.23 in 10.0 mi West 10.4 mph - N/A   Clear
4:15 AM -12.5 °F -29.3 °F -22.0 °F 63% 30.23 in 10.0 mi West 8.1 mph 16.1 mph N/A   Clear
4:55 AM -13.2 °F -33.6 °F -22.4 °F 64% 30.23 in 10.0 mi West 11.5 mph 16.1 mph N/A   Clear
5:15 AM -13.5 °F -38.2 °F -23.1 °F 62% 30.23 in 10.0 mi WNW 17.3 mph - N/A   Clear
5:35 AM -13.9 °F -37.2 °F -23.8 °F 61% 30.23 in 10.0 mi WNW 15.0 mph 23.0 mph N/A   Clear
5:55 AM -14.3 °F -32.8 °F -24.0 °F 62% 30.24 in 10.0 mi WNW 9.2 mph - N/A   Clear
6:15 AM -14.4 °F -34.2 °F -24.7 °F 60% 30.24 in 10.0 mi WNW 10.4 mph 19.6 mph N/A   Scattered Clouds
6:35 AM -14.4 °F -35.2 °F -24.0 °F 62% 30.24 in 10.0 mi West 11.5 mph 18.4 mph N/A   Mostly Cloudy
6:55 AM -14.8 °F -36.6 °F -24.7 °F 61% 30.24 in 10.0 mi WNW 12.7 mph 19.6 mph N/A   Overcast
7:15 AM -15.0 °F -35.9 °F -24.9 °F 61% 30.24 in 10.0 mi WNW 11.5 mph - N/A   Mostly Cloudy
7:35 AM -15.2 °F -38.8 °F -24.9 °F 62% 30.25 in 10.0 mi WNW 15.0 mph 20.7 mph N/A   Mostly Cloudy
7:55 AM -15.3 °F -39.0 °F -25.6 °F 60% 30.26 in 10.0 mi WNW 15.0 mph 21.9 mph N/A   Scattered Clouds
8:15 AM -15.0 °F -39.3 °F -25.6 °F 59% 30.26 in 10.0 mi WNW 16.1 mph 20.7 mph N/A   Mostly Cloudy
8:35 AM -14.8 °F -39.1 °F -25.6 °F 58% 30.26 in 10.0 mi WNW 16.1 mph 25.3 mph N/A   Overcast
8:55 AM -14.8 °F -38.3 °F -25.6 °F 58% 30.27 in 10.0 mi WNW 15.0 mph 21.9 mph N/A   Mostly Cloudy
9:15 AM -14.1 °F -36.6 °F -24.9 °F 58% 30.27 in 10.0 mi WNW 13.8 mph 20.7 mph N/A   Scattered Clouds
9:35 AM -13.9 °F -37.2 °F -24.7 °F 58% 30.28 in 10.0 mi WNW 15.0 mph 21.9 mph N/A   Scattered Clouds
9:55 AM -13.4 °F -36.5 °F -24.5 °F 57% 30.28 in 10.0 mi NW 15.0 mph 20.7 mph N/A   Mostly Cloudy
10:15 AM -12.6 °F -35.5 °F -24.7 °F 55% 30.28 in 10.0 mi WNW 15.0 mph 21.9 mph N/A   Overcast
10:35 AM -12.3 °F -36.6 °F -24.7 °F 54% 30.28 in 10.0 mi WNW 17.3 mph 21.9 mph N/A   Scattered Clouds
10:55 AM -11.7 °F -31.8 °F -23.8 °F 55% 30.28 in 10.0 mi NW 11.5 mph - N/A   Mostly Cloudy
11:15 AM -10.7 °F -33.0 °F -22.7 °F 55% 30.27 in 10.0 mi NW 15.0 mph 18.4 mph N/A   Overcast
11:35 AM -10.7 °F -35.1 °F -23.1 °F 54% 30.26 in 10.0 mi NW 18.4 mph 21.9 mph N/A   Overcast
11:55 AM -10.1 °F -33.1 °F -23.3 °F 52% 30.25 in 10.0 mi NW 16.1 mph 25.3 mph N/A   Overcast
12:15 PM -10.1 °F -30.7 °F -22.7 °F 54% 30.25 in 10.0 mi WNW 12.7 mph 21.9 mph N/A   Overcast
12:35 PM -9.6 °F -30.0 °F -20.0 °F 60% 30.24 in 10.0 mi WNW 12.7 mph - N/A   Overcast
12:55 PM -8.1 °F -25.3 °F -20.4 °F 55% 30.23 in 10.0 mi NW 9.2 mph 20.7 mph N/A   Overcast
1:15 PM -8.0 °F -27.1 °F -20.9 °F 53% 30.22 in 10.0 mi WNW 11.5 mph 20.7 mph N/A   Overcast
1:35 PM -7.4 °F -27.3 °F -21.3 °F 51% 30.22 in 10.0 mi WNW 12.7 mph 20.7 mph N/A   Mostly Cloudy
1:55 PM -7.6 °F -29.8 °F -22.0 °F 50% 30.22 in 10.0 mi WNW 16.1 mph 19.6 mph N/A   Mostly Cloudy
2:15 PM -7.6 °F -26.6 °F -22.7 °F 48% 30.22 in 10.0 mi WNW 11.5 mph 21.9 mph N/A   Mostly Cloudy
2:35 PM -7.6 °F -29.1 °F -22.4 °F 49% 30.22 in 10.0 mi NW 15.0 mph 21.9 mph N/A   Scattered Clouds
2:55 PM -7.6 °F -28.3 °F -21.6 °F 51% 30.22 in 10.0 mi WNW 13.8 mph 21.9 mph N/A   Scattered Clouds
3:15 PM -6.2 °F -28.0 °F -21.5 °F 48% 30.22 in 10.0 mi NW 16.1 mph - N/A   Scattered Clouds
3:35 PM -6.5 °F -25.3 °F -21.5 °F 48% 30.22 in 10.0 mi West 11.5 mph 19.6 mph N/A   Scattered Clouds
3:55 PM -7.2 °F -27.1 °F -21.1 °F 51% 30.22 in 10.0 mi NW 12.7 mph 16.1 mph N/A   Scattered Clouds
4:15 PM -8.0 °F -25.0 °F -21.1 °F 53% 30.22 in 10.0 mi WNW 9.2 mph - N/A   Scattered Clouds
4:35 PM -8.5 °F -24.5 °F -20.7 °F 55% 30.23 in 10.0 mi WNW 8.1 mph - N/A   Scattered Clouds
4:55 PM -8.5 °F -21.6 °F -20.6 °F 56% 30.23 in 10.0 mi NW 5.8 mph - N/A   Mostly Cloudy
5:15 PM -10.3 °F -21.9 °F -21.3 °F 58% 30.23 in 10.0 mi NW 4.6 mph - N/A   Scattered Clouds
5:35 PM -9.9 °F -21.5 °F -20.4 °F 60% 30.23 in 10.0 mi West 4.6 mph - N/A   Clear
5:55 PM -9.2 °F -22.5 °F -20.9 °F 57% 30.23 in 10.0 mi West 5.8 mph - N/A   Clear
6:15 PM -10.3 °F -21.9 °F -20.7 °F 60% 30.24 in 10.0 mi WNW 4.6 mph - N/A   Clear
6:55 PM -9.8 °F -19.0 °F -19.7 °F 62% 30.24 in 10.0 mi West 3.5 mph - N/A   Clear
7:15 PM -10.7 °F -24.2 °F -19.8 °F 64% 30.24 in 10.0 mi West 5.8 mph - N/A   Clear
7:35 PM -10.5 °F -24.0 °F -20.2 °F 62% 30.24 in 10.0 mi West 5.8 mph - N/A   Clear
7:55 PM -11.0 °F -24.6 °F -20.4 °F 63% 30.24 in 10.0 mi West 5.8 mph - N/A   Clear
8:15 PM -11.2 °F -23.0 °F -20.4 °F 64% 30.25 in 10.0 mi West 4.6 mph - N/A   Clear
8:35 PM -11.2 °F -23.0 °F -20.7 °F 63% 30.25 in 10.0 mi West 4.6 mph - N/A   Clear
8:55 PM -11.0 °F -27.6 °F -20.6 °F 63% 30.25 in 10.0 mi WNW 8.1 mph - N/A   Clear
9:15 PM -11.0 °F -24.6 °F -20.7 °F 62% 30.26 in 10.0 mi West 5.8 mph - N/A   Clear
9:35 PM -11.9 °F -25.7 °F -20.9 °F 64% 30.26 in 10.0 mi West 5.8 mph - N/A   Clear
9:55 PM -12.3 °F -24.2 °F -20.7 °F 66% 30.27 in 10.0 mi West 4.6 mph - N/A   Clear
10:15 PM -12.8 °F -24.9 °F -21.5 °F 65% 30.26 in 10.0 mi West 4.6 mph - N/A   Clear
10:35 PM -12.1 °F -25.9 °F -21.5 °F 63% 30.26 in 10.0 mi WNW 5.8 mph - N/A   Clear
10:55 PM -12.5 °F -26.3 °F -21.1 °F 65% 30.27 in 10.0 mi West 5.8 mph - N/A   Clear
11:15 PM -13.0 °F -28.6 °F -21.1 °F 67% 30.27 in 10.0 mi West 6.9 mph - N/A   Clear
11:35 PM -13.5 °F -27.6 °F -21.5 °F 68% 30.27 in 10.0 mi WNW 5.8 mph - N/A   Clear
11:55 PM -14.1 °F -26.3 °F -22.0 °F 68% 30.27 in 10.0 mi WNW 4.6 mph - N/A   Clear